COSMOS 2251 DEB, 35580

Orbit data source: Space-Track

COSMOS 2251 DEB, 35580 is space debris in LEO originally from a launch on Wed, 16 Jun 1993 UTC launched from the Plesetsk Missile And Space Complex (PKMTR). The debris from Iridium 33, an American commercial communications satellite, has been tracked extensively since its accidental collision with the defunct Russian satellite Cosmos 2251 in 2009. This event, occurring at high speed in low Earth orbit (LEO), generated thousands of pieces of space debris, significantly increasing the risk of further collisions. The Iridium 33 debris cloud has impacted space traffic management and orbital debris mitigation strategies, making it a subject of ongoing study in space situational awareness.

Loading next visibility...
Identifier
35580, 1993-036ALX
Orbit
LEO
Country
Flag of CISCIS
Related business
Manufacturer
Unknown
Mission
Spacecraft
Bus & Motor
Unknown
Mass
Unknown
Launch date (UTC)
1993-06-16 (33 years ago)
Launch vehicle
Unknown
Launch site
Plesetsk Missile And Space Complex (PKMTR)
Object type
Payload
Rocket body
Debris
Shape & HBR
Unknown shape, 0.1 m
Radar Cross Section
Small (<0.1 m²)

Expand to show TLE details & history
Last TLE update: 2 days ago

TLE from 2 days ago
0 COSMOS 2251 DEB
1 35580U 93036ALX 26118.21193454  .00001312  00000-0  88594-3 0  9993
2 35580  73.9007 306.5165 0276846 285.9899  71.0892 13.84546658641455
Epoch: 2026-04-28T05:05Z
TLE epoch observation values (Epoch: 2026-04-28T05:05:11.144Z)
Latitude
-0.00004°
Longitude
14.02956°
Altitude
889.699 km
Speed
7.438 km/s
True Right ascension
20h 26m 03s
True Declination
0° 00' 00"
Sunlit
Object was in daylight at epoch
Visualization orbit readout
Latitude
Unknown
Longitude
Unknown
Altitude
Unknown
Speed
Unknown
Apparent Right ascension
Unknown
Apparent Declination
Unknown
Sunlit
N/A
Visualization observer readout
Local Sidereal Time
17:21:33
Azimuth
Unknown
Elevation
Unknown
Doppler factor
Unknown
Orbital elements
Apogee altitude
1,148.246 km
Perigee altitude
742.743 km
Semi-major axis
7,323.631 km
Eccentricity
0.02768
Inclination
73.9007°
RAAN
306.5165°
Arg. of periapsis
285.9899°
True anomaly
74.12299°
Mean anomaly
71.0892°
Eccentric anomaly
72.60285°
Mean motion
3.46301 °/min
Orbital period
103.96 mins
BSTAR
0.00088594

Documentation

Showing up to 5 results
|